Location: Arrien
(43.3167°N, 0.1500°W)
Time: 18:45:58
(UTC+00:00)

Cosmos 1544 Rocket - Pass Details

Date: 04 June 2022
Orbit: 603 x 631 km, 82.5° (Epoch: 29 June)

Event Time Altitude Azimuth Distance (km) Brightness Sun altitude
Rises 00:20:07 0° 356° (N) 2,898 8.4 -24.1°
Reaches altitude 10° 00:22:25 10° 2° (N) 1,983 7.2 -24.1°
Maximum altitude 00:26:41 50° 78° (ENE) 779 4.1 -24.0°
Enters shadow 00:27:04 49° 97° (E) 794 4.0 -24.0°
